Time,TemperatureF,DewpointF,PressureIn,WindDirection,WindDirectionDegrees,WindSpeedMPH,WindSpeedGustMPH,Humidity,HourlyPrecipIn,Conditions,Clouds,dailyrainin,SoftwareType,DateUTC
2013-01-03 00:00:00,38.7,34.8,30.09,NNW,346,0.0,0.0,86,0.00,,BKN047,0.18,VWS V14.00,2013-01-03 05:00:00,
2013-01-03 00:01:00,38.7,34.8,30.09,NNW,346,0.0,0.0,86,0.00,,OVC024,0.00,VWS V14.00,2013-01-03 05:01:00,
2013-01-03 00:02:00,38.9,35.1,30.09,NNW,346,0.0,0.0,86,0.00,,OVC024,0.00,VWS V14.00,2013-01-03 05:02:00,
2013-01-03 00:07:00,38.8,34.7,30.10,North,356,0.0,4.8,85,0.00,,OVC024,0.00,VWS V14.00,2013-01-03 05:07:00,
2013-01-03 00:12:00,38.8,34.7,30.10,North,356,0.0,4.8,85,0.00,,OVC024,0.00,VWS V14.00,2013-01-03 05:12:00,
2013-01-03 00:17:00,38.7,34.6,30.10,North,356,0.0,0.0,85,0.00,,OVC024,0.00,VWS V14.00,2013-01-03 05:17:00,
2013-01-03 00:22:00,38.6,34.5,30.10,North,356,0.0,0.0,85,0.00,,OVC024,0.00,VWS V14.00,2013-01-03 05:22:00,
2013-01-03 00:27:00,38.4,34.3,30.09,North,356,0.0,0.0,85,0.00,,OVC024,0.00,VWS V14.00,2013-01-03 05:27:00,
2013-01-03 00:32:00,38.5,34.6,30.09,North,356,0.0,0.0,86,0.00,,OVC024,0.00,VWS V14.00,2013-01-03 05:32:00,
2013-01-03 00:37:00,38.3,34.4,30.09,North,356,0.0,0.0,86,0.00,,OVC024,0.00,VWS V14.00,2013-01-03 05:37:00,
2013-01-03 00:42:00,38.4,34.4,30.09,North,356,0.0,0.0,85,0.00,,OVC024,0.00,VWS V14.00,2013-01-03 05:42:00,
2013-01-03 00:47:00,38.3,34.5,30.08,North,356,0.0,0.0,86,0.00,,OVC041,0.00,VWS V14.00,2013-01-03 05:47:00,
2013-01-03 00:52:00,38.1,34.4,30.08,North,356,0.0,0.0,86,0.00,,OVC041,0.00,VWS V14.00,2013-01-03 05:52:00,
2013-01-03 00:57:00,38.0,34.4,30.08,North,356,0.0,0.0,87,0.00,,OVC041,0.00,VWS V14.00,2013-01-03 05:57:00,
2013-01-03 01:02:00,37.8,34.4,30.08,North,356,0.0,0.0,87,0.00,,OVC041,0.00,VWS V14.00,2013-01-03 06:02:00,
2013-01-03 01:07:00,37.8,34.2,30.08,NNE,24,0.0,4.7,87,0.00,,OVC041,0.00,VWS V14.00,2013-01-03 06:07:00,
2013-01-03 01:12:00,38.1,34.4,30.07,North,3,0.0,4.7,86,0.00,,OVC041,0.00,VWS V14.00,2013-01-03 06:12:00,
2013-01-03 01:17:00,37.8,34.2,30.08,ENE,59,0.0,2.9,87,0.00,,OVC041,0.00,VWS V14.00,2013-01-03 06:17:00,
2013-01-03 01:22:00,37.8,34.1,30.08,ENE,59,0.0,2.9,86,0.00,,OVC041,0.00,VWS V14.00,2013-01-03 06:22:00,
2013-01-03 01:27:00,37.8,34.2,30.08,ENE,59,0.0,2.9,87,0.00,,OVC041,0.00,VWS V14.00,2013-01-03 06:27:00,
2013-01-03 01:32:00,37.9,34.2,30.08,ENE,59,0.0,0.0,86,0.00,,OVC041,0.00,VWS V14.00,2013-01-03 06:32:00,
2013-01-03 01:37:00,37.9,34.2,30.08,ENE,59,0.0,0.0,86,0.00,,OVC041,0.00,VWS V14.00,2013-01-03 06:37:00,
2013-01-03 01:42:00,37.7,34.1,30.09,ENE,59,0.0,0.0,87,0.00,,OVC041,0.00,VWS V14.00,2013-01-03 06:42:00,
2013-01-03 01:47:00,37.7,34.2,30.09,NNE,17,0.0,0.0,87,0.00,,OVC041,0.00,VWS V14.00,2013-01-03 06:47:00,
2013-01-03 01:52:00,37.7,34.1,30.09,North,354,0.0,4.3,87,0.00,,OVC041,0.00,VWS V14.00,2013-01-03 06:52:00,
2013-01-03 01:57:00,37.7,34.1,30.09,North,354,0.0,4.3,87,0.00,,OVC041,0.00,VWS V14.00,2013-01-03 06:57:00,
2013-01-03 02:02:00,37.7,34.2,30.10,North,354,0.0,0.0,87,0.00,,OVC041,0.00,VWS V14.00,2013-01-03 07:02:00,
2013-01-03 02:07:00,37.5,34.1,30.10,North,354,0.0,0.0,87,0.00,,OVC041,0.00,VWS V14.00,2013-01-03 07:07:00,
2013-01-03 02:12:00,37.2,33.8,30.10,North,10,0.0,5.2,87,0.00,,OVC041,0.00,VWS V14.00,2013-01-03 07:12:00,
2013-01-03 02:17:00,37.4,34.0,30.10,North,10,0.0,0.0,87,0.00,,OVC041,0.00,VWS V14.00,2013-01-03 07:17:00,
2013-01-03 02:22:00,38.9,35.5,30.10,North,10,0.0,0.0,88,0.00,,OVC041,0.00,VWS V14.00,2013-01-03 07:22:00,
2013-01-03 02:27:00,38.9,35.5,30.10,North,8,0.0,2.8,88,0.00,,OVC041,0.00,VWS V14.00,2013-01-03 07:27:00,
2013-01-03 02:32:00,38.5,35.2,30.10,North,8,0.0,0.0,88,0.00,,OVC041,0.00,VWS V14.00,2013-01-03 07:32:00,
2013-01-03 02:37:00,38.7,35.4,30.10,North,3,0.0,4.5,88,0.00,,OVC041,0.00,VWS V14.00,2013-01-03 07:37:00,
2013-01-03 02:42:00,38.6,35.1,30.10,North,3,0.0,4.5,87,0.00,,OVC041,0.00,VWS V14.00,2013-01-03 07:42:00,
2013-01-03 02:47:00,38.5,35.1,30.09,North,3,0.0,0.0,88,0.00,,OVC040,0.00,VWS V14.00,2013-01-03 07:47:00,
2013-01-03 02:52:00,38.8,35.5,30.09,North,3,0.0,0.0,88,0.00,,OVC040,0.00,VWS V14.00,2013-01-03 07:52:00,
2013-01-03 02:57:00,38.6,35.2,30.09,North,3,0.0,0.0,87,0.00,,OVC040,0.00,VWS V14.00,2013-01-03 07:57:00,
2013-01-03 03:02:00,38.8,35.5,30.09,North,3,0.0,0.0,88,0.00,,OVC040,0.00,VWS V14.00,2013-01-03 08:02:00,
2013-01-03 03:07:00,38.6,35.3,30.09,North,3,0.0,0.0,88,0.00,,OVC040,0.00,VWS V14.00,2013-01-03 08:07:00,
2013-01-03 03:12:00,38.6,35.2,30.09,North,3,0.0,0.0,87,0.00,,OVC040,0.00,VWS V14.00,2013-01-03 08:12:00,
2013-01-03 03:17:00,38.5,35.2,30.09,North,3,0.0,0.0,88,0.00,,OVC040,0.00,VWS V14.00,2013-01-03 08:17:00,
2013-01-03 03:22:00,38.5,35.1,30.08,North,3,0.0,0.0,87,0.00,,OVC040,0.00,VWS V14.00,2013-01-03 08:22:00,
2013-01-03 03:27:00,38.6,35.3,30.09,North,3,0.0,0.0,88,0.00,,OVC040,0.00,VWS V14.00,2013-01-03 08:27:00,
2013-01-03 03:32:00,38.6,35.4,30.10,North,3,0.0,0.0,88,0.00,,OVC040,0.00,VWS V14.00,2013-01-03 08:32:00,
2013-01-03 03:37:00,38.7,35.7,30.08,North,3,0.0,0.0,89,0.00,,OVC040,0.00,VWS V14.00,2013-01-03 08:37:00,
2013-01-03 03:42:00,38.7,35.6,30.09,North,3,0.0,0.0,89,0.00,,OVC040,0.00,VWS V14.00,2013-01-03 08:42:00,
2013-01-03 03:47:00,38.5,35.5,30.09,North,3,0.0,0.0,89,0.00,,OVC036,0.00,VWS V14.00,2013-01-03 08:47:00,
2013-01-03 03:52:00,38.3,35.7,30.09,North,3,0.0,0.0,90,0.00,,OVC036,0.00,VWS V14.00,2013-01-03 08:52:00,
2013-01-03 03:57:00,38.5,35.9,30.09,North,3,0.0,0.0,90,0.00,,OVC036,0.00,VWS V14.00,2013-01-03 08:57:00,
2013-01-03 04:02:00,38.6,35.8,30.09,NE,46,0.0,3.4,90,0.00,,OVC036,0.00,VWS V14.00,2013-01-03 09:02:00,
2013-01-03 04:07:00,38.6,35.7,30.08,NE,46,0.0,3.4,89,0.00,,OVC036,0.00,VWS V14.00,2013-01-03 09:07:00,
2013-01-03 04:12:00,38.5,35.6,30.08,NE,46,0.0,3.4,89,0.00,,OVC036,0.00,VWS V14.00,2013-01-03 09:12:00,
2013-01-03 04:17:00,38.5,35.8,30.09,NE,46,0.0,0.0,90,0.00,,OVC036,0.00,VWS V14.00,2013-01-03 09:17:00,
2013-01-03 04:22:00,38.7,36.0,30.09,NE,46,0.0,0.0,90,0.00,,OVC036,0.00,VWS V14.00,2013-01-03 09:22:00,
2013-01-03 04:27:00,38.7,36.1,30.09,NE,46,0.0,0.0,90,0.00,,OVC036,0.00,VWS V14.00,2013-01-03 09:27:00,
2013-01-03 04:32:00,38.5,35.8,30.08,NE,46,0.0,0.0,90,0.00,,OVC036,0.00,VWS V14.00,2013-01-03 09:32:00,
2013-01-03 04:37:00,38.6,35.8,30.08,NE,46,0.0,0.0,90,0.00,,OVC036,0.00,VWS V14.00,2013-01-03 09:37:00,
2013-01-03 04:42:00,38.5,35.8,30.08,NE,46,0.0,0.0,90,0.00,,OVC036,0.00,VWS V14.00,2013-01-03 09:42:00,
2013-01-03 04:47:00,38.4,35.5,30.08,NE,46,0.0,0.0,89,0.00,,OVC034,0.00,VWS V14.00,2013-01-03 09:47:00,
2013-01-03 04:52:00,38.3,35.3,30.09,NE,46,0.0,0.0,89,0.00,,OVC034,0.00,VWS V14.00,2013-01-03 09:52:00,
2013-01-03 04:58:00,38.2,35.3,30.09,NE,46,0.0,0.0,89,0.00,,OVC034,0.00,VWS V14.00,2013-01-03 09:58:00,
2013-01-03 05:03:00,38.5,35.3,30.09,ESE,103,3.4,4.2,88,0.00,,OVC042,0.00,VWS V14.00,2013-01-03 10:03:00,
2013-01-03 05:08:00,38.4,34.9,30.09,SE,129,0.0,4.2,87,0.00,,OVC042,0.00,VWS V14.00,2013-01-03 10:08:00,
2013-01-03 05:13:00,38.2,34.6,30.09,NNE,18,0.0,4.2,87,0.00,,OVC042,0.00,VWS V14.00,2013-01-03 10:13:00,
2013-01-03 05:18:00,38.4,34.7,30.09,NNE,18,0.0,0.0,86,0.00,,OVC042,0.00,VWS V14.00,2013-01-03 10:18:00,
2013-01-03 05:23:00,38.4,34.4,30.09,NNE,18,0.0,0.0,85,0.00,,OVC042,0.00,VWS V14.00,2013-01-03 10:23:00,
2013-01-03 05:28:00,38.3,34.2,30.08,NNE,18,0.0,0.0,85,0.00,,OVC042,0.00,VWS V14.00,2013-01-03 10:28:00,
2013-01-03 05:33:00,38.3,34.2,30.09,NNE,18,0.0,0.0,85,0.00,,OVC042,0.00,VWS V14.00,2013-01-03 10:33:00,
2013-01-03 05:38:00,38.2,34.0,30.09,East,94,0.0,4.8,85,0.00,,OVC042,0.00,VWS V14.00,2013-01-03 10:38:00,
2013-01-03 05:43:00,38.3,34.2,30.09,East,94,0.0,4.8,85,0.00,,OVC042,0.00,VWS V14.00,2013-01-03 10:43:00,
2013-01-03 05:48:00,38.3,33.8,30.09,East,94,0.0,0.0,84,0.00,,OVC045,0.00,VWS V14.00,2013-01-03 10:48:00,
2013-01-03 05:53:00,38.2,33.8,30.09,East,101,0.0,5.8,84,0.00,,OVC045,0.00,VWS V14.00,2013-01-03 10:53:00,
2013-01-03 05:58:00,38.5,33.9,30.08,East,101,0.0,5.8,83,0.00,,OVC045,0.00,VWS V14.00,2013-01-03 10:58:00,
2013-01-03 06:03:00,38.3,33.8,30.09,East,101,0.0,0.0,84,0.00,,OVC045,0.00,VWS V14.00,2013-01-03 11:03:00,
2013-01-03 06:08:00,38.4,33.8,30.09,East,101,0.0,0.0,83,0.00,,OVC045,0.00,VWS V14.00,2013-01-03 11:08:00,
2013-01-03 06:13:00,38.4,33.8,30.10,East,101,0.0,0.0,83,0.00,,OVC045,0.00,VWS V14.00,2013-01-03 11:13:00,
2013-01-03 06:18:00,38.3,33.7,30.10,East,101,0.0,0.0,83,0.00,,OVC045,0.00,VWS V14.00,2013-01-03 11:18:00,
2013-01-03 06:23:00,38.3,33.7,30.10,East,101,0.0,0.0,83,0.00,,OVC045,0.00,VWS V14.00,2013-01-03 11:23:00,
2013-01-03 06:28:00,38.3,33.6,30.10,East,101,0.0,0.0,83,0.00,,OVC045,0.00,VWS V14.00,2013-01-03 11:28:00,
2013-01-03 06:33:00,38.3,33.7,30.11,East,101,0.0,0.0,83,0.00,,OVC045,0.00,VWS V14.00,2013-01-03 11:33:00,
2013-01-03 06:38:00,38.1,33.7,30.11,East,101,0.0,0.0,84,0.00,,OVC045,0.00,VWS V14.00,2013-01-03 11:38:00,
2013-01-03 06:43:00,37.9,33.5,30.11,East,101,0.0,0.0,84,0.00,,OVC045,0.00,VWS V14.00,2013-01-03 11:43:00,
2013-01-03 06:48:00,37.9,33.3,30.11,East,101,0.0,0.0,83,0.00,,OVC031,0.00,VWS V14.00,2013-01-03 11:48:00,
2013-01-03 06:53:00,38.0,33.2,30.12,ENE,58,0.0,4.7,83,0.00,,OVC031,0.00,VWS V14.00,2013-01-03 11:53:00,
2013-01-03 06:58:00,38.0,33.1,30.11,ENE,58,0.0,4.7,82,0.00,,OVC031,0.00,VWS V14.00,2013-01-03 11:58:00,
2013-01-03 07:03:00,38.2,33.4,30.12,ENE,58,0.0,0.0,83,0.00,,OVC031,0.00,VWS V14.00,2013-01-03 12:03:00,
2013-01-03 07:08:00,38.1,33.0,30.12,ENE,58,0.0,1.9,82,0.00,,OVC031,0.00,VWS V14.00,2013-01-03 12:08:00,
2013-01-03 07:13:00,38.2,33.3,30.11,ENE,58,0.0,1.9,82,0.00,,OVC031,0.00,VWS V14.00,2013-01-03 12:13:00,
2013-01-03 07:18:00,37.9,32.8,30.11,ENE,58,0.0,0.0,82,0.00,,OVC031,0.00,VWS V14.00,2013-01-03 12:18:00,
2013-01-03 07:23:00,38.0,33.0,30.12,ENE,58,0.0,0.0,82,0.00,,OVC031,0.00,VWS V14.00,2013-01-03 12:23:00,
2013-01-03 07:28:00,37.6,32.5,30.12,ENE,58,0.0,0.0,82,0.00,,OVC031,0.00,VWS V14.00,2013-01-03 12:28:00,
2013-01-03 07:33:00,37.8,32.8,30.12,ENE,58,0.0,0.0,82,0.00,,OVC031,0.00,VWS V14.00,2013-01-03 12:33:00,
2013-01-03 07:38:00,37.9,32.8,30.12,ENE,58,0.0,0.0,82,0.00,,OVC031,0.00,VWS V14.00,2013-01-03 12:38:00,
2013-01-03 07:43:00,37.7,32.2,30.12,ENE,58,0.0,0.0,80,0.00,,OVC031,0.00,VWS V14.00,2013-01-03 12:43:00,
2013-01-03 07:48:00,37.9,32.4,30.12,ENE,58,0.0,0.0,80,0.00,,OVC031,0.00,VWS V14.00,2013-01-03 12:48:00,
2013-01-03 07:53:00,37.5,32.0,30.12,ENE,58,0.0,0.0,80,0.00,,OVC031,0.00,VWS V14.00,2013-01-03 12:53:00,
2013-01-03 07:58:00,37.9,32.4,30.12,ENE,58,0.0,0.0,80,0.00,,OVC031,0.00,VWS V14.00,2013-01-03 12:58:00,
2013-01-03 08:03:00,37.7,32.3,30.12,ENE,58,0.0,0.0,81,0.00,,OVC031,0.00,VWS V14.00,2013-01-03 13:03:00,
2013-01-03 08:08:00,38.0,32.6,30.12,ENE,58,0.0,0.0,81,0.00,,OVC031,0.00,VWS V14.00,2013-01-03 13:08:00,
2013-01-03 08:13:00,38.1,32.6,30.12,ENE,58,0.0,0.0,80,0.00,,OVC031,0.00,VWS V14.00,2013-01-03 13:13:00,
2013-01-03 08:18:00,37.9,32.2,30.12,NNE,32,5.8,5.8,80,0.00,,OVC031,0.00,VWS V14.00,2013-01-03 13:18:00,
2013-01-03 08:23:00,37.9,32.0,30.13,ENE,59,0.0,5.8,79,0.00,,OVC031,0.00,VWS V14.00,2013-01-03 13:23:00,
2013-01-03 08:28:00,37.8,32.0,30.13,NE,34,0.0,5.8,79,0.00,,OVC031,0.00,VWS V14.00,2013-01-03 13:28:00,
2013-01-03 08:33:00,37.7,31.8,30.12,NNE,21,0.0,2.6,79,0.00,,OVC031,0.00,VWS V14.00,2013-01-03 13:33:00,
2013-01-03 08:38:00,37.9,32.1,30.13,NNE,21,0.0,2.6,79,0.00,,OVC031,0.00,VWS V14.00,2013-01-03 13:38:00,
2013-01-03 08:43:00,37.7,31.7,30.13,NNE,17,4.3,5.5,79,0.00,,OVC031,0.00,VWS V14.00,2013-01-03 13:43:00,
2013-01-03 08:48:00,37.8,31.8,30.13,NNE,28,0.0,0.0,79,0.00,,OVC031,0.00,VWS V14.00,2013-01-03 13:48:00,
2013-01-03 08:53:00,37.5,31.5,30.13,NE,39,0.0,5.1,79,0.00,,OVC031,0.00,VWS V14.00,2013-01-03 13:53:00,
2013-01-03 08:58:00,37.8,32.2,30.13,NE,39,0.0,5.1,80,0.00,,OVC031,0.00,VWS V14.00,2013-01-03 13:58:00,
2013-01-03 09:03:00,38.0,32.5,30.13,North,10,4.6,4.8,80,0.00,,OVC031,0.00,VWS V14.00,2013-01-03 14:03:00,
2013-01-03 09:08:00,38.0,32.4,30.13,NNE,17,0.0,4.8,80,0.00,,OVC031,0.00,VWS V14.00,2013-01-03 14:08:00,
2013-01-03 09:13:00,37.8,32.2,30.14,North,8,0.0,4.8,80,0.00,,OVC031,0.00,VWS V14.00,2013-01-03 14:13:00,
2013-01-03 09:18:00,38.1,32.5,30.14,North,8,0.0,0.0,80,0.00,,OVC031,0.00,VWS V14.00,2013-01-03 14:18:00,
2013-01-03 09:23:00,38.0,32.4,30.13,North,8,0.0,0.0,80,0.00,,OVC031,0.00,VWS V14.00,2013-01-03 14:23:00,
2013-01-03 09:28:00,38.2,32.5,30.14,North,8,0.0,0.0,80,0.00,,OVC031,0.00,VWS V14.00,2013-01-03 14:28:00,
2013-01-03 09:33:00,38.1,32.3,30.14,NNE,28,0.0,4.9,79,0.00,,OVC031,0.00,VWS V14.00,2013-01-03 14:33:00,
2013-01-03 09:38:00,38.0,32.3,30.14,NE,41,0.0,4.9,80,0.00,,OVC031,0.00,VWS V14.00,2013-01-03 14:38:00,
2013-01-03 09:43:00,37.7,31.7,30.14,NE,41,0.0,4.9,79,0.00,,OVC031,0.00,VWS V14.00,2013-01-03 14:43:00,
2013-01-03 09:48:00,37.5,31.5,30.14,NNE,25,0.0,4.3,79,0.00,,OVC029,0.00,VWS V14.00,2013-01-03 14:48:00,
2013-01-03 09:53:00,37.5,31.4,30.14,NE,53,0.0,4.3,78,0.00,,OVC029,0.00,VWS V14.00,2013-01-03 14:53:00,
2013-01-03 09:58:00,37.6,31.4,30.15,NNE,31,0.0,4.3,78,0.00,,OVC029,0.00,VWS V14.00,2013-01-03 14:58:00,
2013-01-03 10:03:00,37.4,31.2,30.15,NE,49,0.0,4.8,78,0.00,,OVC029,0.00,VWS V14.00,2013-01-03 15:03:00,
2013-01-03 10:08:00,38.2,31.8,30.15,NE,35,0.0,5.6,78,0.00,,OVC029,0.00,VWS V14.00,2013-01-03 15:08:00,
2013-01-03 10:13:00,38.2,32.0,30.15,North,359,0.0,5.6,78,0.00,,OVC029,0.00,VWS V14.00,2013-01-03 15:13:00,
2013-01-03 10:18:00,38.5,32.1,30.15,NE,34,0.0,0.0,78,0.00,,OVC029,0.00,VWS V14.00,2013-01-03 15:18:00,
2013-01-03 10:23:00,38.4,31.8,30.15,North,4,0.0,4.7,77,0.00,,OVC029,0.00,VWS V14.00,2013-01-03 15:23:00,
2013-01-03 10:28:00,38.4,31.8,30.15,NNE,24,0.0,5.1,77,0.00,,OVC029,0.00,VWS V14.00,2013-01-03 15:28:00,
2013-01-03 10:33:00,38.2,31.5,30.15,ESE,108,0.0,3.4,76,0.00,,OVC029,0.00,VWS V14.00,2013-01-03 15:33:00,
2013-01-03 10:38:00,38.6,31.8,30.15,NE,48,0.0,3.4,76,0.00,,OVC029,0.00,VWS V14.00,2013-01-03 15:38:00,
2013-01-03 10:43:00,38.5,31.7,30.15,NE,48,0.0,3.4,76,0.00,,OVC029,0.00,VWS V14.00,2013-01-03 15:43:00,
2013-01-03 10:48:00,38.8,31.9,30.15,NE,48,0.0,0.0,76,0.00,,OVC027,0.00,VWS V14.00,2013-01-03 15:48:00,
2013-01-03 10:53:00,38.7,31.7,30.15,NE,48,0.0,2.8,76,0.00,,OVC027,0.00,VWS V14.00,2013-01-03 15:53:00,
2013-01-03 10:58:00,38.6,32.0,30.14,NE,48,0.0,2.8,77,0.00,,OVC027,0.00,VWS V14.00,2013-01-03 15:58:00,
2013-01-03 11:03:00,38.3,31.7,30.14,NE,37,0.0,3.3,77,0.00,,OVC027,0.00,VWS V14.00,2013-01-03 16:03:00,
2013-01-03 11:08:00,38.1,31.3,30.14,North,10,3.5,5.8,76,0.00,,OVC027,0.00,VWS V14.00,2013-01-03 16:08:00,
2013-01-03 11:13:00,34.2,27.7,30.14,North,3,0.0,5.8,77,0.00,,OVC027,0.00,VWS V14.00,2013-01-03 16:13:00,
2013-01-03 11:18:00,37.6,31.0,30.13,North,3,0.0,0.0,77,0.00,,OVC027,0.00,VWS V14.00,2013-01-03 16:18:00,
2013-01-03 11:23:00,37.6,30.9,30.13,NNE,15,0.0,5.0,76,0.00,,OVC027,0.00,VWS V14.00,2013-01-03 16:23:00,
2013-01-03 11:28:00,38.2,31.4,30.13,NNE,15,0.0,5.0,76,0.00,,OVC027,0.00,VWS V14.00,2013-01-03 16:28:00,
2013-01-03 11:33:00,38.5,31.8,30.12,NNE,15,0.0,0.0,77,0.00,,OVC027,0.00,VWS V14.00,2013-01-03 16:33:00,
2013-01-03 11:38:00,38.8,32.0,30.12,NNE,15,0.0,0.0,76,0.00,,OVC027,0.00,VWS V14.00,2013-01-03 16:38:00,
2013-01-03 11:43:00,38.8,31.9,30.12,NNE,15,0.0,0.0,76,0.00,,OVC027,0.00,VWS V14.00,2013-01-03 16:43:00,
2013-01-03 11:48:00,38.4,31.5,30.12,North,8,0.0,0.0,76,0.00,,OVC025,0.00,VWS V14.00,2013-01-03 16:48:00,
2013-01-03 11:53:00,38.4,31.7,30.12,NNE,18,3.3,3.5,77,0.00,,OVC025,0.00,VWS V14.00,2013-01-03 16:53:00,
2013-01-03 11:58:00,38.6,32.1,30.12,North,11,0.0,3.5,77,0.00,,OVC025,0.00,VWS V14.00,2013-01-03 16:58:00,
2013-01-03 12:03:00,38.7,32.2,30.11,North,11,0.0,0.0,77,0.00,,OVC025,0.00,VWS V14.00,2013-01-03 17:03:00,
2013-01-03 12:08:00,38.9,32.4,30.11,North,11,0.0,0.0,77,0.00,,OVC025,0.00,VWS V14.00,2013-01-03 17:08:00,
2013-01-03 12:13:00,38.8,32.0,30.11,North,11,0.0,0.0,76,0.00,,OVC025,0.00,VWS V14.00,2013-01-03 17:13:00,
2013-01-03 12:18:00,38.7,32.2,30.11,North,11,0.0,0.0,77,0.00,,OVC025,0.00,VWS V14.00,2013-01-03 17:18:00,
2013-01-03 12:23:00,38.9,32.4,30.11,North,11,0.0,0.0,77,0.00,,OVC025,0.00,VWS V14.00,2013-01-03 17:23:00,
2013-01-03 12:28:00,38.9,32.5,30.11,North,11,0.0,2.7,78,0.00,,OVC025,0.00,VWS V14.00,2013-01-03 17:28:00,
2013-01-03 12:33:00,38.8,32.4,30.10,North,11,0.0,0.0,78,0.00,,OVC025,0.00,VWS V14.00,2013-01-03 17:33:00,
2013-01-03 12:38:00,39.0,32.5,30.10,North,11,0.0,0.0,77,0.00,,OVC025,0.00,VWS V14.00,2013-01-03 17:38:00,
2013-01-03 12:43:00,39.1,32.5,30.10,North,1,0.0,3.5,77,0.00,,OVC025,0.00,VWS V14.00,2013-01-03 17:43:00,
2013-01-03 12:48:00,38.8,32.2,30.10,North,6,3.4,3.4,77,0.00,,OVC025,0.00,VWS V14.00,2013-01-03 17:48:00,
2013-01-03 12:53:00,39.1,32.3,30.09,North,10,0.0,3.4,76,0.00,,OVC025,0.00,VWS V14.00,2013-01-03 17:53:00,
2013-01-03 12:58:00,39.1,32.2,30.09,NW,326,0.0,3.4,76,0.00,,OVC025,0.00,VWS V14.00,2013-01-03 17:58:00,
2013-01-03 13:03:00,39.2,32.2,30.09,NW,326,0.0,0.0,76,0.00,,OVC025,0.00,VWS V14.00,2013-01-03 18:03:00,
2013-01-03 13:08:00,39.1,32.3,30.09,NW,326,0.0,0.0,76,0.00,,OVC025,0.00,VWS V14.00,2013-01-03 18:08:00,
2013-01-03 13:13:00,39.3,32.2,30.09,NW,326,0.0,0.0,75,0.00,,OVC025,0.00,VWS V14.00,2013-01-03 18:13:00,
2013-01-03 13:18:00,39.5,32.4,30.09,NW,326,0.0,0.0,76,0.00,,OVC025,0.00,VWS V14.00,2013-01-03 18:18:00,
2013-01-03 13:23:00,40.1,32.7,30.10,NNW,330,0.0,4.4,75,0.00,,OVC025,0.00,VWS V14.00,2013-01-03 18:23:00,
2013-01-03 13:28:00,39.3,32.2,30.10,NNW,330,0.0,4.4,75,0.00,,OVC025,0.00,VWS V14.00,2013-01-03 18:28:00,
2013-01-03 13:33:00,39.4,32.4,30.10,NNW,330,0.0,0.0,76,0.00,,OVC025,0.00,VWS V14.00,2013-01-03 18:33:00,
2013-01-03 13:38:00,39.4,32.2,30.10,NNW,330,0.0,0.0,75,0.00,,OVC025,0.00,VWS V14.00,2013-01-03 18:38:00,
2013-01-03 13:43:00,39.5,32.4,30.10,NNW,330,0.0,0.0,75,0.00,,OVC025,0.00,VWS V14.00,2013-01-03 18:43:00,
2013-01-03 13:48:00,39.5,32.5,30.09,NNW,330,0.0,0.0,76,0.00,,OVC027,0.00,VWS V14.00,2013-01-03 18:48:00,
2013-01-03 13:53:00,39.6,32.5,30.09,NNW,330,0.0,0.0,76,0.00,,OVC027,0.00,VWS V14.00,2013-01-03 18:53:00,
2013-01-03 13:58:00,39.4,32.5,30.09,NNW,330,0.0,0.0,76,0.00,,OVC027,0.00,VWS V14.00,2013-01-03 18:58:00,
2013-01-03 14:03:00,39.5,32.7,30.09,NNW,330,0.0,0.0,76,0.00,,OVC027,0.00,VWS V14.00,2013-01-03 19:03:00,
2013-01-03 14:08:00,39.6,33.0,30.09,NNW,330,0.0,0.0,77,0.00,,OVC027,0.00,VWS V14.00,2013-01-03 19:08:00,
2013-01-03 14:13:00,40.0,33.1,30.09,NNE,27,0.0,4.7,76,0.00,,OVC027,0.00,VWS V14.00,2013-01-03 19:13:00,
2013-01-03 14:18:00,40.0,33.0,30.09,North,4,0.0,3.2,76,0.00,,OVC027,0.00,VWS V14.00,2013-01-03 19:18:00,
2013-01-03 14:55:00,39.3,33.1,30.10,NNE,25,3.4,6.2,78,0.00,,OVC033,0.00,VWS V14.00,2013-01-03 19:55:00,
2013-01-03 15:00:00,39.8,33.7,30.10,North,356,0.0,6.4,79,0.00,,OVC033,0.00,VWS V14.00,2013-01-03 20:00:00,
2013-01-03 15:05:00,39.5,33.2,30.10,NW,322,0.0,7.1,78,0.00,,OVC033,0.00,VWS V14.00,2013-01-03 20:05:00,
2013-01-03 15:10:00,39.4,33.2,30.11,NNE,17,0.0,7.1,78,0.00,,OVC033,0.00,VWS V14.00,2013-01-03 20:10:00,
2013-01-03 15:15:00,39.5,33.2,30.11,NNE,31,0.0,7.1,78,0.00,,OVC033,0.00,VWS V14.00,2013-01-03 20:15:00,
2013-01-03 15:20:00,39.5,33.2,30.11,NNE,17,0.0,3.2,78,0.00,,OVC033,0.00,VWS V14.00,2013-01-03 20:20:00,
2013-01-03 15:25:00,39.6,33.3,30.11,NNE,17,0.0,3.2,78,0.00,,OVC033,0.00,VWS V14.00,2013-01-03 20:25:00,
2013-01-03 15:30:00,39.3,33.0,30.12,NE,39,0.0,4.5,78,0.00,,OVC033,0.00,VWS V14.00,2013-01-03 20:30:00,
2013-01-03 15:35:00,39.5,33.3,30.11,NE,39,0.0,0.0,78,0.00,,OVC033,0.00,VWS V14.00,2013-01-03 20:35:00,
2013-01-03 15:40:00,39.6,33.8,30.11,West,271,0.0,4.3,79,0.00,,OVC033,0.00,VWS V14.00,2013-01-03 20:40:00,
2013-01-03 15:45:00,39.4,33.7,30.12,West,271,0.0,4.3,80,0.00,,OVC033,0.00,VWS V14.00,2013-01-03 20:45:00,
2013-01-03 15:50:00,39.6,34.2,30.12,West,271,0.0,0.0,81,0.00,,OVC033,0.00,VWS V14.00,2013-01-03 20:50:00,
2013-01-03 15:55:00,39.6,34.3,30.12,West,271,0.0,0.0,81,0.00,,OVC033,0.00,VWS V14.00,2013-01-03 20:55:00,
2013-01-03 16:00:00,39.7,34.5,30.11,West,271,0.0,0.0,81,0.00,,OVC033,0.00,VWS V14.00,2013-01-03 21:00:00,
2013-01-03 16:05:00,39.7,34.5,30.12,West,271,0.0,0.0,81,0.00,,OVC033,0.00,VWS V14.00,2013-01-03 21:05:00,
2013-01-03 16:10:00,39.4,34.2,30.12,West,271,0.0,0.0,81,0.00,,OVC033,0.00,VWS V14.00,2013-01-03 21:10:00,
2013-01-03 16:15:00,39.6,34.4,30.12,West,271,0.0,0.0,82,0.00,,OVC033,0.00,VWS V14.00,2013-01-03 21:15:00,
2013-01-03 16:20:00,39.5,34.5,30.12,West,271,0.0,0.0,82,0.00,,OVC033,0.00,VWS V14.00,2013-01-03 21:20:00,
2013-01-03 16:26:00,39.8,34.9,30.12,West,271,0.0,0.0,82,0.00,,OVC033,0.00,VWS V14.00,2013-01-03 21:26:00,
2013-01-03 16:30:00,39.7,34.9,30.12,West,271,0.0,0.0,83,0.00,,OVC033,0.00,VWS V14.00,2013-01-03 21:30:00,
2013-01-03 16:36:00,40.0,35.2,30.13,West,271,0.0,0.0,83,0.00,,OVC033,0.00,VWS V14.00,2013-01-03 21:36:00,
2013-01-03 16:41:00,39.9,35.2,30.13,West,271,0.0,0.0,83,0.00,,OVC033,0.00,VWS V14.00,2013-01-03 21:41:00,
2013-01-03 16:46:00,39.9,35.3,30.13,West,271,0.0,0.0,84,0.00,,BKN038,0.00,VWS V14.00,2013-01-03 21:46:00,
2013-01-03 16:51:00,39.7,35.4,30.13,West,271,0.0,0.0,84,0.00,,BKN038,0.00,VWS V14.00,2013-01-03 21:51:00,
2013-01-03 16:56:00,39.7,35.5,30.13,West,271,0.0,0.0,85,0.00,,BKN038,0.00,VWS V14.00,2013-01-03 21:56:00,
2013-01-03 17:01:00,39.6,35.7,30.13,West,271,0.0,0.0,86,0.00,,BKN038,0.00,VWS V14.00,2013-01-03 22:01:00,
2013-01-03 17:06:00,39.4,35.6,30.13,West,271,0.0,0.0,86,0.00,,SCT025,0.00,VWS V14.00,2013-01-03 22:06:00,
2013-01-03 17:11:00,38.9,35.2,30.13,West,271,0.0,0.0,87,0.00,,SCT025,0.00,VWS V14.00,2013-01-03 22:11:00,
2013-01-03 17:16:00,38.5,35.0,30.13,West,271,0.0,0.0,87,0.00,,SCT025,0.00,VWS V14.00,2013-01-03 22:16:00,
2013-01-03 17:21:00,37.9,34.6,30.13,West,271,0.0,0.0,88,0.00,,SCT025,0.00,VWS V14.00,2013-01-03 22:21:00,
2013-01-03 17:26:00,38.4,35.3,30.13,West,271,0.0,0.0,89,0.00,,SCT025,0.00,VWS V14.00,2013-01-03 22:26:00,
2013-01-03 17:31:00,37.3,34.5,30.13,West,271,0.0,0.0,90,0.00,,SCT025,0.00,VWS V14.00,2013-01-03 22:31:00,
2013-01-03 17:36:00,38.2,35.7,30.13,West,271,0.0,0.0,90,0.00,,SCT025,0.00,VWS V14.00,2013-01-03 22:36:00,
2013-01-03 17:41:00,37.3,34.8,30.14,West,271,0.0,0.0,91,0.00,,SCT025,0.00,VWS V14.00,2013-01-03 22:41:00,
2013-01-03 17:46:00,36.8,34.5,30.14,West,271,0.0,0.0,91,0.00,,FEW025,0.00,VWS V14.00,2013-01-03 22:46:00,
2013-01-03 17:51:00,35.1,33.0,30.13,West,271,0.0,0.0,92,0.00,,FEW025,0.00,VWS V14.00,2013-01-03 22:51:00,
2013-01-03 17:56:00,35.0,33.0,30.13,West,271,0.0,0.0,92,0.00,,FEW025,0.00,VWS V14.00,2013-01-03 22:56:00,
2013-01-03 18:01:00,35.0,33.2,30.14,West,271,0.0,0.0,93,0.00,,FEW025,0.00,VWS V14.00,2013-01-03 23:01:00,
2013-01-03 18:06:00,33.4,31.8,30.14,West,271,0.0,0.0,94,0.00,,FEW025,0.00,VWS V14.00,2013-01-03 23:06:00,
2013-01-03 18:11:00,31.9,30.4,30.14,West,271,0.0,0.0,94,0.00,,FEW025,0.00,VWS V14.00,2013-01-03 23:11:00,
2013-01-03 18:16:00,33.5,32.1,30.14,West,271,0.0,0.0,94,0.00,,FEW025,0.00,VWS V14.00,2013-01-03 23:16:00,
2013-01-03 18:21:00,36.6,35.3,30.15,West,271,0.0,0.0,95,0.00,,FEW025,0.00,VWS V14.00,2013-01-03 23:21:00,
2013-01-03 18:26:00,36.6,35.4,30.15,West,271,0.0,0.0,96,0.00,,FEW025,0.00,VWS V14.00,2013-01-03 23:26:00,
2013-01-03 18:31:00,36.5,35.5,30.15,West,271,0.0,0.0,96,0.00,,FEW025,0.00,VWS V14.00,2013-01-03 23:31:00,
2013-01-03 18:36:00,35.5,34.6,30.15,West,271,0.0,0.0,96,0.00,,FEW025,0.00,VWS V14.00,2013-01-03 23:36:00,
2013-01-03 18:41:00,35.1,34.3,30.15,West,271,0.0,0.0,97,0.00,,FEW025,0.00,VWS V14.00,2013-01-03 23:41:00,
2013-01-03 18:46:00,34.8,34.1,30.15,West,271,0.0,0.0,97,0.00,,CLR,0.00,VWS V14.00,2013-01-03 23:46:00,
2013-01-03 18:51:00,35.1,34.4,30.15,West,271,0.0,0.0,97,0.00,,CLR,0.00,VWS V14.00,2013-01-03 23:51:00,
2013-01-03 18:56:00,34.7,34.2,30.15,West,271,0.0,0.0,98,0.00,,CLR,0.00,VWS V14.00,2013-01-03 23:56:00,
2013-01-03 19:01:00,34.1,33.8,30.15,West,271,0.0,0.0,99,0.00,,CLR,0.00,VWS V14.00,2013-01-04 00:01:00,
2013-01-03 19:06:00,33.0,32.8,30.16,West,271,0.0,0.0,99,0.00,,CLR,0.00,VWS V14.00,2013-01-04 00:06:00,
2013-01-03 19:11:00,32.9,32.8,30.16,West,271,0.0,0.0,99,0.00,,CLR,0.00,VWS V14.00,2013-01-04 00:11:00,
2013-01-03 19:16:00,33.4,33.3,30.16,West,271,0.0,0.0,100,0.00,,CLR,0.00,VWS V14.00,2013-01-04 00:16:00,
2013-01-03 19:21:00,33.7,33.7,30.16,West,271,0.0,0.0,100,0.00,,CLR,0.00,VWS V14.00,2013-01-04 00:21:00,
2013-01-03 19:26:00,32.8,32.8,30.16,West,271,0.0,0.0,100,0.00,,CLR,0.00,VWS V14.00,2013-01-04 00:26:00,
2013-01-03 19:31:00,32.1,32.1,30.16,West,271,0.0,0.0,100,0.00,,CLR,0.00,VWS V14.00,2013-01-04 00:31:00,
2013-01-03 19:36:00,31.7,31.7,30.16,West,271,0.0,0.0,100,0.00,,CLR,0.00,VWS V14.00,2013-01-04 00:36:00,
2013-01-03 19:41:00,32.1,32.1,30.17,West,271,0.0,0.0,100,0.00,,CLR,0.00,VWS V14.00,2013-01-04 00:41:00,
2013-01-03 19:46:00,33.6,33.6,30.17,West,271,0.0,0.0,100,0.00,,CLR,0.00,VWS V14.00,2013-01-04 00:46:00,
2013-01-03 19:51:00,32.1,32.1,30.17,West,271,0.0,0.0,100,0.00,,CLR,0.00,VWS V14.00,2013-01-04 00:51:00,
2013-01-03 19:56:00,31.8,31.8,30.17,West,271,0.0,0.0,100,0.00,,CLR,0.00,VWS V14.00,2013-01-04 00:56:00,
2013-01-03 20:01:00,31.2,31.2,30.17,West,271,0.0,0.0,100,0.00,,CLR,0.00,VWS V14.00,2013-01-04 01:01:00,
2013-01-03 20:06:00,31.1,31.1,30.17,West,271,0.0,0.0,100,0.00,,CLR,0.00,VWS V14.00,2013-01-04 01:06:00,
2013-01-03 20:11:00,31.5,31.5,30.17,West,271,0.0,0.0,100,0.00,,CLR,0.00,VWS V14.00,2013-01-04 01:11:00,
2013-01-03 20:16:00,31.1,31.1,30.17,West,271,0.0,0.0,100,0.00,,CLR,0.00,VWS V14.00,2013-01-04 01:16:00,
2013-01-03 20:21:00,31.2,31.2,30.17,West,271,0.0,0.0,100,0.00,,CLR,0.00,VWS V14.00,2013-01-04 01:21:00,
2013-01-03 20:26:00,31.0,31.0,30.17,West,271,0.0,0.0,100,0.00,,CLR,0.00,VWS V14.00,2013-01-04 01:26:00,
2013-01-03 20:31:00,31.5,31.5,30.17,West,271,0.0,0.0,100,0.00,,CLR,0.00,VWS V14.00,2013-01-04 01:31:00,
2013-01-03 20:36:00,31.6,31.6,30.17,West,271,0.0,0.0,100,0.00,,CLR,0.00,VWS V14.00,2013-01-04 01:36:00,
2013-01-03 20:41:00,32.2,32.2,30.17,West,271,0.0,0.0,100,0.00,,CLR,0.00,VWS V14.00,2013-01-04 01:41:00,
2013-01-03 20:46:00,32.0,32.0,30.18,West,271,0.0,0.0,100,0.00,,CLR,0.00,VWS V14.00,2013-01-04 01:46:00,
2013-01-03 20:51:00,32.1,32.1,30.17,West,271,0.0,0.0,100,0.00,,CLR,0.00,VWS V14.00,2013-01-04 01:51:00,
2013-01-03 20:56:00,32.3,32.3,30.18,West,271,0.0,0.0,100,0.00,,CLR,0.00,VWS V14.00,2013-01-04 01:56:00,
2013-01-03 21:01:00,33.7,33.6,30.17,West,271,0.0,0.0,100,0.00,,CLR,0.00,VWS V14.00,2013-01-04 02:01:00,
2013-01-03 21:06:00,33.2,33.0,30.17,West,271,0.0,0.0,99,0.00,,CLR,0.00,VWS V14.00,2013-01-04 02:06:00,
2013-01-03 21:11:00,33.0,32.7,30.17,West,271,0.0,0.0,99,0.00,,CLR,0.00,VWS V14.00,2013-01-04 02:11:00,
2013-01-03 21:16:00,33.3,33.0,30.17,West,271,0.0,0.0,99,0.00,,CLR,0.00,VWS V14.00,2013-01-04 02:16:00,
2013-01-03 21:21:00,33.1,32.8,30.17,West,271,0.0,0.0,99,0.00,,CLR,0.00,VWS V14.00,2013-01-04 02:21:00,
2013-01-03 21:26:00,32.6,32.4,30.17,West,271,0.0,0.0,99,0.00,,CLR,0.00,VWS V14.00,2013-01-04 02:26:00,
2013-01-03 21:31:00,33.0,32.8,30.17,West,271,0.0,0.0,99,0.00,,CLR,0.00,VWS V14.00,2013-01-04 02:31:00,
2013-01-03 21:36:00,34.1,33.7,30.18,West,271,0.0,0.0,98,0.00,,CLR,0.00,VWS V14.00,2013-01-04 02:36:00,
2013-01-03 21:41:00,33.0,32.7,30.18,West,271,0.0,0.0,99,0.00,,CLR,0.00,VWS V14.00,2013-01-04 02:41:00,
2013-01-03 21:46:00,32.2,31.9,30.18,West,271,0.0,0.0,99,0.00,,CLR,0.00,VWS V14.00,2013-01-04 02:46:00,
2013-01-03 21:51:00,32.0,31.9,30.18,West,271,0.0,0.0,99,0.00,,CLR,0.00,VWS V14.00,2013-01-04 02:51:00,
2013-01-03 21:56:00,32.8,32.7,30.18,West,271,0.0,0.0,100,0.00,,CLR,0.00,VWS V14.00,2013-01-04 02:56:00,
2013-01-03 22:01:00,32.6,32.5,30.18,West,271,0.0,0.0,100,0.00,,CLR,0.00,VWS V14.00,2013-01-04 03:01:00,
2013-01-03 22:06:00,32.4,32.3,30.18,West,271,0.0,0.0,100,0.00,,CLR,0.00,VWS V14.00,2013-01-04 03:06:00,
2013-01-03 22:11:00,32.7,32.7,30.18,West,271,0.0,0.0,100,0.00,,CLR,0.00,VWS V14.00,2013-01-04 03:11:00,
2013-01-03 22:16:00,33.2,33.2,30.18,West,271,0.0,0.0,100,0.00,,CLR,0.00,VWS V14.00,2013-01-04 03:16:00,
2013-01-03 22:21:00,33.1,33.0,30.18,West,271,0.0,0.0,100,0.00,,CLR,0.00,VWS V14.00,2013-01-04 03:21:00,
2013-01-03 22:26:00,31.9,31.9,30.18,West,271,0.0,0.0,100,0.00,,CLR,0.00,VWS V14.00,2013-01-04 03:26:00,
2013-01-03 22:31:00,31.3,31.3,30.18,West,271,0.0,0.0,100,0.00,,CLR,0.00,VWS V14.00,2013-01-04 03:31:00,
2013-01-03 22:36:00,31.7,31.7,30.18,West,271,0.0,0.0,100,0.00,,CLR,0.00,VWS V14.00,2013-01-04 03:36:00,
2013-01-03 22:41:00,31.3,31.3,30.18,NW,308,0.0,3.2,100,0.00,,CLR,0.00,VWS V14.00,2013-01-04 03:41:00,
2013-01-03 22:46:00,31.5,31.5,30.19,NW,308,0.0,3.2,100,0.00,,CLR,0.00,VWS V14.00,2013-01-04 03:46:00,
2013-01-03 22:51:00,31.8,31.8,30.19,West,264,0.0,2.7,100,0.00,,CLR,0.00,VWS V14.00,2013-01-04 03:51:00,
2013-01-03 22:56:00,31.2,31.2,30.19,West,263,0.0,3.2,100,0.00,,CLR,0.00,VWS V14.00,2013-01-04 03:56:00,
2013-01-03 23:01:00,31.9,31.9,30.19,West,259,0.0,0.0,100,0.00,,CLR,0.00,VWS V14.00,2013-01-04 04:01:00,
2013-01-03 23:06:00,31.7,31.5,30.19,WNW,294,0.0,5.2,99,0.00,,CLR,0.00,VWS V14.00,2013-01-04 04:06:00,
2013-01-03 23:11:00,30.6,30.4,30.19,WNW,290,0.0,5.2,99,0.00,,CLR,0.00,VWS V14.00,2013-01-04 04:11:00,
2013-01-03 23:16:00,31.0,30.7,30.19,WNW,290,0.0,0.0,99,0.00,,CLR,0.00,VWS V14.00,2013-01-04 04:16:00,
2013-01-03 23:21:00,32.2,31.7,30.19,NW,315,0.0,4.6,98,0.00,,CLR,0.00,VWS V14.00,2013-01-04 04:21:00,
2013-01-03 23:26:00,32.0,31.3,30.19,NW,304,0.0,4.6,97,0.00,,CLR,0.00,VWS V14.00,2013-01-04 04:26:00,
2013-01-03 23:31:00,32.5,31.6,30.19,NW,304,0.0,0.0,97,0.00,,CLR,0.00,VWS V14.00,2013-01-04 04:31:00,
2013-01-03 23:36:00,31.9,30.9,30.19,NW,305,0.0,4.6,96,0.00,,CLR,0.00,VWS V14.00,2013-01-04 04:36:00,
2013-01-03 23:41:00,32.7,31.7,30.19,NW,326,2.9,4.6,96,0.00,,CLR,0.00,VWS V14.00,2013-01-04 04:41:00,
2013-01-03 23:46:00,32.2,31.2,30.19,NNW,343,0.0,0.0,96,0.00,,CLR,0.00,VWS V14.00,2013-01-04 04:46:00,
2013-01-03 23:51:00,31.5,30.5,30.18,NNW,343,0.0,0.0,96,0.00,,CLR,0.00,VWS V14.00,2013-01-04 04:51:00,
2013-01-03 23:56:00,31.3,30.3,30.19,WNW,291,0.0,4.2,96,0.00,,CLR,0.00,VWS V14.00,2013-01-04 04:56:00,